This is the latest recevied weather packets stored in our database for station/object DB0LHR-6. If no packets are shown the sender has not sent any weather packets the latest 10 day(s).
| Time | Temp. | Humidity | Pressure | Rain* | Wind** | Luminosity | Snow |
|---|---|---|---|---|---|---|---|
| 1777740375 | 26.11° C | 20% | 1016 hPa | 0 mm | - | - | - |
| 1777739475 | 26.67° C | 17% | 1016 hPa | 0 mm | - | - | - |
| 1777738575 | 27.78° C | 16% | 1016 hPa | 0 mm | - | - | - |
| 1777737675 | 27.78° C | 16% | 1016 hPa | 0 mm | - | - | - |
| 1777736775 | 28.33° C | 13% | 1016 hPa | 0 mm | - | - | - |
| 1777735875 | 29.44° C | 13% | 1016 hPa | 0 mm | - | - | - |
| 1777734975 | 30° C | 13% | 1017 hPa | 0 mm | - | - | - |
| 1777734075 | 30.56° C | 13% | 1017 hPa | 0 mm | - | - | - |
| 1777733175 | 31.11° C | 13% | 1017 hPa | 0 mm | - | - | - |
| 1777732275 | 31.11° C | 13% | 1017 hPa | 0 mm | - | - | - |
| 1777731375 | 31.11° C | 15% | 1018 hPa | 0 mm | - | - | - |
| 1777730475 | 31.11° C | 13% | 1018 hPa | 0 mm | - | - | - |
| 1777729575 | 31.11° C | 15% | 1018 hPa | 0 mm | - | - | - |
| 1777728675 | 30.56° C | 15% | 1018 hPa | 0 mm | - | - | - |
| 1777727775 | 31.11° C | 15% | 1018 hPa | 0 mm | - | - | - |
| 1777726875 | 30.56° C | 18% | 1019 hPa | 0 mm | - | - | - |
| 1777725975 | 30.56° C | 18% | 1019 hPa | 0 mm | - | - | - |
| 1777725075 | 30° C | 18% | 1019 hPa | 0 mm | - | - | - |
| 1777724176 | 30° C | 18% | 1019 hPa | 0 mm | - | - | - |
| 1777723275 | 29.44° C | 19% | 1019 hPa | 0 mm | - | - | - |
| 1777722375 | 29.44° C | 19% | 1020 hPa | 0 mm | - | - | - |
| 1777721475 | 28.33° C | 19% | 1020 hPa | 0 mm | - | - | - |
| 1777720575 | 28.33° C | 19% | 1020 hPa | 0 mm | - | - | - |
| 1777719675 | 28.33° C | 19% | 1020 hPa | 0 mm | - | - | - |
| 1777718775 | 27.78° C | 19% | 1020 hPa | 0 mm | - | - | - |
* Rain latest 24 hours (hover to see other rain measurements)
** Current wind speed in m/s (hover to see current wind gust speed)